Torna al catalogo

STARLINK-37869

AttivoComunicazioniSSO
NORAD 69483·PAYLOAD·🇺🇸 United States

Lanciato Jun 11, 2026 da Vandenberg Space Force Base

Loading…

Prossimi Passaggi (prossime 24 ore)

TLE

AggiornatoSource: CelesTrak SupGP

Epoca: Sep 15, 2026, 03:51 UTC

1 69483C 26131F   26258.16090278 -.00065062  00000+0 -20200-2 0  2583
2 69483  97.2831 279.0677 0001221  92.6207  20.0962 15.33467280    11

Traccia STARLINK-37869 in tempo reale con AllMySat

Download on the App Store